User: anonymous   Login
Location: Borgo
(42.3939°N, 9.2791°E)
Time: 20:35:20
(UTC+00:00)
Language:

Cosmos-2242 - Orbit

View from above orbital plane
View from above orbital plane
View from above satellite
View from above satellite

Ground track
Ground track

The orbit data is extracted from the following two-line orbital elements,

1 22626U 93024A   21126.52727641  .00000209  00000-0  19846-4 0  9995
2 22626  82.5194 143.2522 0020569  88.4121 271.9453 14.88117835516889
Epoch (UTC): 06 May 2021 12:39:16
Eccentricity: 0.0020569
inclination: 82.5194°
perigee height: 589 km
apogee height: 618 km
right ascension of ascending node: 143.2522°
argument of perigee: 88.4121°
revolutions per day: 14.88117835
mean anomaly at epoch: 271.9453°
orbit number at epoch: 51688

The dashed part of the orbit path shows where the satellite is in the earth's shadow,  

DLR